GW4151 Weather Reports


time (UTC)temp
C
wind
direction
speed
KPH
gust
KPH
rain 1hr
cm
rain 24hr
cm
rain mn
cm
humidity
%
barometer
mb
20260509185101 16 220 6.4 14.5 0.00 0.00 0.00 64 983.8
20260509183557 15 190 6.4 14.5 0.00 0.00 0.00 68 984.1
20260509182053 15 217 4.8 9.7 0.00 0.00 0.00 72 983.8
20260509180549 13 233 9.7 14.5 0.00 0.00 0.00 74 984.0
20260509175046 13 169 3.2 11.3 0.00 0.00 0.00 77 984.0
20260509173543 13 234 6.4 14.5 0.00 0.00 0.00 77 984.3
20260509172039 12 168 4.8 6.4 0.00 0.00 0.00 74 983.5
20260509170538 12 276 4.8 11.3 0.00 0.00 0.00 81 984.9
20260509165035 12 310 3.2 11.3 0.00 0.00 0.00 79 984.6
20260509163531 12 223 4.8 14.5 0.00 0.00 0.00 77 984.5
20260509162030 12 273 9.7 14.5 0.00 0.00 0.00 79 984.6
20260509160530 12 245 11.3 22.5 0.00 0.00 0.00 80 984.9
20260509155029 13 155 12.9 17.7 0.00 0.00 0.00 80 984.1
20260509153525 13 253 12.9 29.0 0.00 0.00 0.00 78 983.6
20260509152021 14 271 19.3 37.0 0.00 0.00 0.00 77 983.1
20260509150518 15 232 8.0 24.1 0.00 0.00 0.00 73 982.9
20260509145019 15 244 22.5 25.7 0.00 0.00 0.00 74 982.6
20260509143516 15 195 12.9 29.0 0.00 0.00 0.00 74 982.6
20260509142011 15 249 4.8 20.9 0.00 0.00 0.00 74 982.2
20260509140507 15 193 6.4 16.1 0.00 0.00 0.00 73 982.3
20260509135005 15 126 14.5 24.1 0.00 0.00 0.00 73 982.6
20260509133502 15 253 11.3 17.7 0.00 0.00 0.00 73 982.2
20260509132001 15 179 8.0 24.1 0.00 0.00 0.00 73 982.2
20260509130501 15 221 9.7 25.7 0.00 0.00 0.00 71 982.2
20260509124957 15 231 11.3 30.6 0.00 0.00 0.00 69 982.5
20260509123455 15 204 3.2 11.3 0.00 0.00 0.00 75 982.6
20260509121950 13 94 1.6 11.3 0.00 0.00 0.00 80 982.5
20260509120449 12 254 6.4 11.3 0.00 0.00 0.00 82 982.4
20260509114947 12 228 4.8 12.9 0.00 0.00 0.00 85 982.2
20260509113447 11 110 8.0 12.9 0.00 0.00 0.00 86 982.1
20260509111944 11 170 8.0 14.5 0.00 0.00 0.00 87 982.1
20260509110441 11 181 6.4 14.5 0.00 0.00 0.00 88 982.2
20260509104940 11 228 14.5 22.5 0.00 0.00 0.00 88 982.4
20260509103437 11 245 3.2 17.7 0.00 0.00 0.00 88 982.4
20260509101934 10 168 4.8 9.7 0.00 0.00 0.00 90 982.6
20260509100431 10 212 6.4 16.1 0.00 0.00 0.00 91 982.5
20260509094927 10 161 6.4 14.5 0.00 0.00 0.00 91 983.2
20260509093424 10 163 4.8 12.9 0.00 0.00 0.00 90 983.0
20260509091924 10 199 3.2 9.7 0.00 0.00 0.00 90 983.0
20260509090421 10 185 6.4 9.7 0.00 0.00 0.00 90 983.1
20260509084917 10 149 6.4 9.7 0.00 0.00 0.00 89 983.1
20260509083414 10 168 4.8 9.7 0.00 0.00 0.00 88 983.4
20260509081911 11 181 8.0 11.3 0.00 0.00 0.00 87 983.5
20260509080409 11 260 6.4 12.9 0.00 0.00 0.00 86 983.8
20260509074907 11 144 3.2 11.3 0.00 0.00 0.00 84 983.6
20260509073403 11 151 8.0 11.3 0.00 0.00 0.00 84 984.1
20260509071859 10 147 3.2 16.1 0.00 0.00 0.00 81 984.3
20260509070356 10 148 3.2 9.7 0.00 0.00 0.00 78 984.4
20260509064856 11 208 3.2 6.4 0.00 0.00 0.00 75 984.8
20260509063353 11 169 4.8 14.5 0.00 0.00 0.00 73 984.8
20260509061850 11 197 6.4 11.3 0.00 0.00 0.00 68 985.0
20260509060348 10 196 4.8 9.7 0.00 0.00 0.00 62 985.1
20260509054847 10 196 1.6 3.2 0.00 0.00 0.00 52 985.1
20260509053344 10 154 8.0 11.3 0.00 0.00 0.00 49 985.3
20260509051843 10 150 3.2 6.4 0.00 0.00 0.00 49 985.3
20260509050340 10 192 4.8 6.4 0.00 0.00 0.00 48 985.1
20260509044837 11 150 4.8 9.7 0.00 0.00 0.00 47 985.3
20260509043332 11 168 3.2 9.7 0.00 0.00 0.00 46 985.3
20260509041828 11 159 4.8 4.8 0.00 0.00 0.00 45 985.4
20260509040326 11 130 1.6 4.8 0.00 0.00 0.00 46 985.6
20260509034822 10 180 0.0 0.0 0.00 0.00 0.00 47 985.8
20260509033320 10 169 0.0 0.0 0.00 0.00 0.00 46 985.8
20260509031818 11 151 0.0 3.2 0.00 0.00 0.00 41 985.8
20260509030316 11 149 3.2 4.8 0.00 0.00 0.00 40 986.1
20260509024815 11 162 1.6 1.6 0.00 0.00 0.00 41 986.3
20260509023312 11 146 3.2 4.8 0.00 0.00 0.00 37 986.5
20260509021808 11 205 0.0 0.0 0.00 0.00 0.00 38 986.5
20260509020307 12 132 0.0 6.4 0.00 0.00 0.00 35 986.7
20260509014804 10 166 0.0 1.6 0.00 0.00 0.00 42 986.5
20260509013300 10 163 0.0 0.0 0.00 0.00 0.00 43 986.3
20260509011756 11 180 0.0 0.0 0.00 0.00 0.00 38 986.3
20260509010254 13 168 0.0 0.0 0.00 0.00 0.00 32 986.3
20260509004754 13 169 0.0 0.0 0.00 0.00 0.00 29 986.3
20260509003253 15 169 0.0 3.2 0.00 0.00 0.00 27 986.5
20260509001751 15 150 4.8 4.8 0.00 0.00 0.00 25 986.6
20260509000248 16 160 3.2 4.8 0.00 0.00 0.00 25 986.6
20260508234745 16 210 3.2 4.8 0.00 0.00 0.00 23 986.8
20260508233244 16 202 3.2 4.8 0.00 0.00 0.00 24 987.1
20260508231742 17 273 4.8 9.7 0.00 0.00 0.00 23 987.2
20260508230237 16 238 6.4 12.9 0.00 0.00 0.00 24 987.6
20260508224734 16 220 4.8 12.9 0.00 0.00 0.00 24 987.4
20260508223232 16 268 9.7 14.5 0.00 0.00 0.00 25 987.4
20260508221728 16 262 4.8 12.9 0.00 0.00 0.00 27 987.4
20260508220228 17 240 6.4 11.3 0.00 0.00 0.00 27 987.5
20260508214724 17 180 1.6 9.7 0.00 0.00 0.00 28 987.5
20260508213220 17 227 3.2 11.3 0.00 0.00 0.00 28 987.6
20260508211715 17 246 6.4 9.7 0.00 0.00 0.00 28 987.7
20260508210211 16 247 4.8 12.9 0.00 0.00 0.00 28 987.8
20260508204706 17 267 9.7 11.3 0.00 0.00 0.00 27 987.9
20260508203201 17 233 1.6 12.9 0.00 0.00 0.00 29 988.2
20260508201657 16 347 4.8 11.3 0.00 0.00 0.00 29 988.2
20260508200153 16 258 6.4 14.5 0.00 0.00 0.00 28 988.5
20260508194648 17 288 9.7 12.9 0.00 0.00 0.00 27 988.6
20260508193145 16 196 3.2 14.5 0.00 0.00 0.00 29 988.8
20260508191641 16 226 4.8 9.7 0.00 0.00 0.00 29 989.0